Regional Weather Roundup
Issued by NWS Sioux Falls, SD

Home | Current Version | Previous Version | Text Only | Print | Product List | Glossary Off
Versions: 1 2 3 4 5 6 7 8 9 10 11 12 13 14 15 16 17 18 19 20 21 22 23 24 25 26 27 28 29 30 31 32 33 34 35 36 37 38 39 40 41 42 43 44 45 46 47 48 49 50

000
ASUS43 KFSD 231802
RWRFSD

WEATHER ROUNDUP FOR SE SOUTH DAKOTA/SW MINNESOTA/NW IOWA
NATIONAL WEATHER SERVICE SIOUX FALLS SD
100 PM CDT WED AUG 23 2017

NOTE: "FAIR" INDICATES FEW OR NO CLOUDS BELOW 12,000 FEET WITH NO
SIGNIFICANT WEATHER AND OR OBSTRUCTIONS TO VISIBILITY.


SDZ038>040-050-052>070-231900-
SOUTHEAST SOUTH DAKOTA

CITY           SKY/WX    TMP DP  RH WIND       PRES   REMARKS
BROOKINGS      MOSUNNY   74  53  48 SW8       30.10F
CHAMBERLAIN    MOSUNNY   81  60  50 SE12      30.01F
6HR MIN TEMP:  56; 6HR MAX TEMP:  81;

HURON          SUNNY     78  57  48 S17       30.03F
6HR MIN TEMP:  51; 6HR MAX TEMP:  78;

MADISON        FAIR      73  57  56 S9        30.10F
MITCHELL       NOT AVBL
SIOUX FALLS    MOSUNNY   78  57  48 S8        30.10F
6HR MIN TEMP:  51; 6HR MAX TEMP:  78;

WINNER         FAIR      83  59  44 SW16G22   30.02F
YANKTON        SUNNY     77  58  51 S10       30.09F
$$

MNZ071-072-080-081-089-090-097-098-231900-
SOUTHWEST MINNESOTA

CITY           SKY/WX    TMP DP  RH WIND       PRES   REMARKS
FAIRMONT       SUNNY     73  48  41 NW8       30.13F
JACKSON        MOSUNNY   72  48  43 CALM      30.14F
LUVERNE        MOSUNNY   73  52  46 SW7       30.12F
MARSHALL       MOSUNNY   74  48  39 S3        30.11F
6HR MIN TEMP:  52; 6HR MAX TEMP:  74; 6HR PCP: TRACE;

MONTEVIDEO     SUNNY     77  59  53 CALM      30.11F
PIPESTONE      MOSUNNY   73  48  40 S5        30.12F
REDWOOD FALLS  SUNNY     74  48  39 VRB3      30.11F
TRACY          PTSUNNY   73  53  49 NW3       30.12F
WINDOM         SUNNY     75  48  38 W3        30.13F
WORTHINGTON    CLOUDY    72  51  47 W6        30.14F
$$

IAZ001>003-012>014-020>022-031-032-NEZ013-014-SDZ071-231900-
NORTHWEST IOWA

CITY           SKY/WX    TMP DP  RH WIND       PRES   REMARKS
CHEROKEE       SUNNY     75  53  46 SW6       30.13F
DENISON        SUNNY     73  55  53 VRB6      30.16F
ESTHERVILLE    MOSUNNY   72  49  44 VRB5      30.13F
ORANGE CITY    SUNNY     75  55  50 SW6       30.13F
SHELDON        SUNNY     75  54  46 W6        30.11F
SIOUX CITY     SUNNY     76  59  55 S7        30.13F
6HR MIN TEMP:  52; 6HR MAX TEMP:  76;

SPENCER        PTSUNNY   75  51  43 NW8       30.13F
6HR MIN TEMP:  48; 6HR MAX TEMP:  75;

STORM LAKE     SUNNY     73  54  49 W7        30.14F
$$

ABBREVIATIONS USED IN REMARKS
   TC - TEMPERATURE IN CELSIUS
  WCI - WIND CHILL INDEX
   HX - HEAT INDEX
  VSB - VISIBILITY




USA.gov is the U.S. government's official web portal to all federal, state and local government web resources and services.